GFSNE_700_spd_276.txt.gz
Wind_Speed
27 40 45 54 50 49 45 44 54 58 54 66 62 60 59 59 57 57 58 57 57 58 57 56 55 55 53 52 49 46 45 41 37 34 39 38 35 32
58 32 29 35 47 58 58 64 58 52 64 55 54 57 59 58 65 66 63 60 60 59 59 61 60 58 57 53 51 49 45 39 35 37 42 38 37 42
47 56 55 53 47 55 60 61 64 66 72 66 73 68 58 63 70 70 78 71 69 64 64 61 62 59 58 56 54 48 45 38 34 42 42 42 46 40
37 43 43 42 45 47 54 54 53 57 61 63 53 54 59 47 49 54 51 75 73 71 62 63 68 61 60 60 54 51 44 39 36 47 42 43 47 38
34 31 34 38 39 41 41 40 44 47 47 50 58 55 58 60 62 54 58 35 58 72 81 59 73 49 53 63 50 43 42 38 44 47 43 43 41 41
34 34 34 35 37 38 39 38 39 42 43 46 51 55 52 59 63 67 63 64 66 36 43 47 49 49 62 32 40 39 38 44 49 55 42 38 37 42
34 32 32 35 36 37 37 37 38 39 39 42 45 47 47 48 51 54 58 66 47 44 43 42 34 50 42 36 36 39 37 41 40 45 37 32 37 41
30 33 33 32 35 36 37 37 37 39 37 36 36 39 38 40 39 39 36 39 40 42 42 46 51 49 49 40 37 39 40 38 25 31 41 38 41 36
32 31 33 34 33 35 37 35 37 38 38 39 37 34 33 33 34 33 36 35 38 40 41 43 36 40 36 40 37 32 37 37 30 34 36 35 40 36
34 33 33 34 36 35 34 36 35 36 38 39 40 37 36 34 34 35 35 34 37 40 36 33 36 39 40 39 41 41 43 41 35 36 38 36 28 31
35 34 35 34 35 36 36 35 36 36 36 39 42 41 39 36 36 33 31 31 30 32 34 39 40 36 46 38 32 35 35 29 27 28 28 30 28 29
36 36 35 34 35 37 37 37 36 37 39 38 38 40 42 39 37 37 37 36 31 26 24 29 28 26 29 29 28 29 28 26 27 27 26 27 29 22
37 38 37 36 35 36 37 38 39 39 39 39 39 37 38 41 40 39 37 35 33 34 34 33 31 30 28 29 28 29 30 32 31 25 18 22 21 21
36 37 37 36 37 38 37 38 39 40 42 41 40 39 37 35 39 41 39 36 34 31 28 22 21 25 24 24 27 29 28 22 23 22 24 28 26 24
36 36 35 36 36 35 34 34 35 36 38 40 40 38 35 33 32 36 38 37 34 32 30 23 29 26 24 22 22 22 21 22 16 16 20 22 22 18
40 37 36 35 33 31 29 29 30 31 31 31 34 35 31 29 28 30 33 35 34 33 31 30 24 24 23 21 20 19 19 18 19 21 18 18 19 16
43 40 39 36 30 27 27 27 27 27 27 27 27 29 29 26 24 25 29 30 31 32 30 28 28 26 24 22 21 19 18 16 17 20 15 14 15 15
42 40 38 35 31 28 26 24 24 24 25 24 23 23 23 23 21 21 24 25 26 28 28 27 26 25 22 22 20 17 16 13 12 13 13 13 11 9
39 37 35 32 28 26 25 23 22 22 22 22 20 19 17 18 18 18 18 20 21 23 24 24 22 21 19 18 14 12 12 12 13 13 13 12 10 9
36 33 30 28 26 25 24 22 21 20 20 19 18 17 15 13 14 15 14 14 16 16 16 17 18 18 17 12 10 12 15 10 9 11 12 13 10 8
31 29 28 26 25 25 25 22 19 18 17 17 16 14 13 10 10 12 12 10 12 13 14 17 15 15 14 13 15 13 14 12 15 13 12 11 10 9
30 29 28 28 28 26 24 22 19 16 15 15 15 14 11 6 9 11 13 16 16 15 14 13 13 14 13 14 16 13 13 17 21 18 16 13 9 7
31 31 30 28 26 26 24 20 17 14 12 12 12 12 7 7 13 16 17 16 13 14 12 9 12 12 13 15 13 14 14 15 16 15 13 11 9 7

GFSNE_700_spd_279.txt.gz
Wind_Speed
43 48 53 57 51 47 53 55 44 46 46 42 50 59 59 56 59 61 62 60 58 55 54 57 62 63 64 64 63 60 60 59 59 58 57 50 48 40
42 39 37 38 39 45 57 55 54 57 71 59 61 59 59 64 63 67 64 60 60 55 55 57 61 62 63 66 69 67 62 59 59 59 61 52 49 42
34 35 34 36 39 42 44 50 48 53 56 71 60 59 61 61 60 49 55 69 68 72 66 64 75 75 76 76 70 71 67 58 61 60 60 54 49 44
29 32 33 33 35 37 40 42 42 44 51 58 59 62 59 56 54 55 56 57 55 55 65 67 54 58 63 66 63 82 79 61 62 67 64 61 50 48
29 30 31 32 33 34 37 40 42 43 44 50 55 56 57 60 58 60 56 53 61 61 65 60 58 61 45 51 75 48 63 49 68 74 64 56 47 42
30 30 31 33 34 33 35 38 40 41 44 47 51 51 51 52 53 53 55 57 57 58 64 65 62 58 55 56 42 60 66 65 37 33 29 38 42 43
30 30 30 32 36 37 36 37 39 41 41 42 45 48 49 48 46 46 49 51 52 54 57 60 58 63 60 47 43 45 41 41 67 43 41 42 48 52
31 31 31 33 34 37 37 37 39 42 42 42 43 43 43 44 42 39 40 43 40 37 41 38 37 41 43 49 43 40 41 47 46 45 45 44 43 48
34 33 33 34 36 38 38 37 36 38 41 43 44 43 43 40 39 39 35 34 36 38 42 40 43 40 40 39 42 42 43 44 40 40 47 41 39 40
36 36 36 35 36 39 39 39 39 37 36 40 42 44 42 42 41 38 35 39 37 36 40 42 40 37 35 42 38 42 44 43 37 34 39 41 41 41
37 36 37 36 36 38 40 40 40 40 38 38 40 40 41 41 41 41 37 37 37 35 37 34 39 39 26 25 24 25 27 27 33 29 25 30 28 26
37 36 35 36 36 37 39 40 40 41 40 39 38 39 40 39 41 41 38 37 36 36 36 32 31 30 22 21 21 18 17 21 22 22 25 23 24 22
37 35 34 35 36 36 37 39 41 42 42 42 40 38 37 40 39 42 41 37 35 35 34 32 31 31 27 25 21 22 19 16 15 20 23 20 14 14
39 37 36 36 35 36 36 37 38 39 40 40 39 37 34 34 36 38 39 39 36 34 32 30 31 23 20 17 18 16 17 17 13 13 10 9 13 16
40 39 38 37 36 35 33 34 35 34 34 34 35 34 30 29 29 31 33 34 34 33 31 30 27 29 27 16 19 19 17 14 16 16 14 14 15 18
42 41 39 37 35 34 31 27 28 29 30 31 31 30 29 26 25 26 28 30 30 29 30 28 27 26 18 16 15 18 17 16 17 14 12 10 14 11
45 42 39 37 33 30 28 26 24 26 27 27 27 26 25 24 22 21 22 25 26 24 25 25 25 26 25 22 20 20 15 16 13 14 13 12 14 11
41 40 36 33 30 28 25 24 23 24 24 25 24 22 21 21 19 16 15 18 19 18 19 19 17 18 18 20 20 19 18 12 11 12 12 13 13 12
37 34 33 31 29 26 25 25 23 23 23 22 21 19 18 18 17 12 12 14 13 12 13 12 13 15 16 16 16 15 13 12 12 15 13 12 11 10
34 32 31 30 29 28 27 25 24 22 20 20 19 16 15 15 14 10 8 9 10 10 11 12 13 13 15 15 13 10 11 11 10 11 13 15 12 10
32 29 29 29 29 29 27 25 24 21 19 18 16 13 12 13 11 7 7 8 11 13 13 12 12 12 13 12 13 13 14 14 15 13 13 13 11 9
29 28 29 31 30 28 26 25 23 19 17 16 14 11 11 11 6 6 10 12 13 13 12 13 12 14 11 10 10 11 13 17 18 18 15 12 10 8
28 27 29 30 31 28 25 24 21 18 16 14 11 10 9 5 6 10 12 12 12 10 9 9 11 13 11 11 11 14 13 15 20 18 16 13 9 7

GFSNE_700_spd_282.txt.gz
Wind_Speed
38 41 42 40 39 42 44 46 51 56 57 54 54 52 52 54 50 55 52 48 52 55 58 59 56 58 55 51 53 57 58 59 60 59 60 65 67 64
34 36 38 40 39 39 41 43 45 49 56 52 54 57 59 57 60 62 59 67 70 63 63 66 73 70 66 64 64 59 60 60 60 60 58 57 61 62
29 31 34 36 38 41 38 39 42 45 53 56 55 57 57 58 62 62 64 62 60 67 74 67 72 76 69 69 72 74 67 63 64 62 59 57 61 64
31 32 34 35 37 38 39 39 41 41 45 51 51 52 54 55 58 62 61 63 66 64 69 68 70 70 74 72 70 73 71 57 51 54 56 62 64 64
30 31 33 35 37 38 38 38 40 42 44 48 52 51 51 51 52 52 56 56 53 55 62 64 70 67 70 66 66 64 60 54 58 57 58 60 62 69
29 30 31 33 35 37 39 39 40 40 41 45 49 51 52 49 49 51 51 52 51 49 53 58 60 65 67 68 70 68 67 61 55 55 54 51 53 55
31 32 32 32 34 35 38 39 42 44 44 43 45 47 49 49 50 48 48 46 48 49 47 50 52 54 56 60 60 60 63 64 60 51 44 43 52 50
33 33 34 34 35 36 37 39 41 43 44 46 45 45 46 47 45 45 46 45 44 36 46 47 49 47 46 47 47 45 44 43 46 45 53 44 44 45
35 36 35 36 37 38 38 38 39 40 42 43 44 43 45 45 45 43 42 43 42 36 37 41 38 42 47 46 40 40 41 43 43 43 46 43 45 46
37 37 36 35 36 38 39 38 38 39 40 42 42 41 43 44 45 45 42 40 38 34 36 37 34 36 39 42 40 41 47 45 45 45 47 49 47 46
37 36 36 34 35 38 41 41 39 39 40 41 41 39 39 42 45 45 43 43 38 34 31 36 32 31 31 28 23 24 20 17 21 26 32 29 31 31
38 36 35 35 36 37 40 41 42 41 41 42 41 39 36 35 38 42 43 43 41 36 32 31 27 26 25 24 23 14 13 13 13 11 10 14 14 15
41 37 36 37 39 39 40 41 41 41 41 41 41 40 36 30 31 33 36 40 41 38 30 30 29 26 20 21 22 19 17 11 15 12 10 11 11 10
42 41 40 39 39 38 37 38 38 39 38 37 36 34 34 32 29 30 31 33 37 36 29 28 28 23 22 16 12 12 11 7 8 2 10 4 3 4
42 41 40 38 37 36 34 33 34 34 33 31 29 30 31 31 28 28 29 29 30 31 27 25 25 22 19 18 19 17 7 9 9 9 6 9 8 6
42 39 36 34 33 35 32 29 29 29 28 28 28 27 27 27 25 26 26 26 25 23 22 21 20 19 18 19 14 12 11 9 8 6 5 10 8 5
44 40 38 34 33 31 29 29 28 27 27 27 27 26 26 24 22 22 23 21 18 15 14 15 15 16 16 16 15 14 10 10 6 4 8 6 2 4
39 37 35 33 32 32 30 28 28 28 27 27 26 24 23 22 21 20 19 15 12 9 7 7 7 11 13 17 14 17 14 10 8 3 6 5 4 7
37 34 32 31 32 32 32 31 28 27 28 27 25 23 21 19 19 18 14 10 7 4 5 9 10 10 13 11 20 15 11 8 7 7 11 11 8 9
34 32 31 31 33 34 34 32 28 26 26 26 24 20 18 18 17 15 9 5 3 5 9 10 10 9 10 9 9 8 10 11 11 11 11 14 13 11
32 28 27 29 34 35 34 32 29 27 25 24 21 18 15 16 15 10 4 3 5 8 9 9 9 8 9 8 8 7 7 10 11 13 15 14 11 10
30 27 25 29 35 37 36 32 27 26 22 20 17 15 13 13 11 4 4 5 6 7 7 7 8 8 9 8 7 6 8 14 16 15 14 11 9 8
30 28 26 30 36 37 35 28 25 23 19 17 14 11 10 9 2 3 7 5 5 4 4 5 4 6 8 7 7 8 12 18 19 18 15 13 10 7

GFSNE_700_spd_285.txt.gz
Wind_Speed
34 37 40 42 43 45 46 46 48 54 55 55 54 51 53 56 54 57 57 57 57 64 68 74 68 68 72 64 64 63 64 61 61 61 63 64 62 62
31 32 34 38 40 42 42 43 45 50 55 53 53 55 52 56 58 55 51 56 61 66 71 69 74 73 73 75 73 67 65 70 69 66 65 65 61 61
30 31 33 35 37 39 42 40 42 44 48 51 51 51 54 54 54 58 61 63 63 67 71 72 73 76 77 76 80 84 76 74 74 75 71 70 68 66
31 32 34 35 36 38 39 40 41 41 45 49 48 49 50 51 53 54 53 54 59 61 65 65 65 69 73 78 77 79 83 76 75 73 66 59 62 63
36 35 34 35 37 39 40 41 41 42 42 44 47 47 49 49 50 49 51 51 51 51 50 53 54 57 61 63 67 72 77 75 67 68 62 57 54 52
35 35 35 36 38 38 39 39 40 42 43 44 45 47 48 48 49 50 48 44 47 45 47 48 48 49 53 55 57 61 60 61 61 58 61 60 57 59
34 34 35 37 40 39 41 39 40 41 42 43 44 46 47 48 48 47 46 45 41 41 40 43 44 45 47 48 48 51 53 52 52 48 48 52 55 54
36 35 35 37 38 39 40 41 40 41 40 40 41 42 43 46 47 46 45 44 43 37 39 38 38 41 42 42 42 41 42 43 46 42 37 38 41 43
38 39 39 39 39 39 39 39 39 40 41 41 42 41 43 43 45 46 44 45 42 39 39 36 33 36 38 38 35 35 35 37 40 40 37 40 40 40
39 41 41 40 40 41 41 41 41 41 41 43 44 43 42 42 43 44 44 43 41 38 38 37 29 32 33 32 30 27 25 25 27 29 38 43 42 46
39 41 41 41 41 42 43 45 45 42 42 41 41 42 42 40 39 39 40 42 40 37 34 34 28 27 28 25 23 20 21 16 15 13 15 22 28 30
41 42 41 41 42 42 43 45 46 44 42 40 38 39 38 36 35 35 35 37 39 37 32 28 23 21 20 22 18 16 20 19 19 16 10 8 10 15
44 44 43 43 41 38 38 39 41 41 39 38 36 35 35 31 28 29 31 33 35 35 33 30 24 22 23 21 12 15 9 11 14 13 10 9 7 9
46 45 44 43 39 37 35 36 37 36 35 34 33 31 31 29 27 27 28 28 29 30 30 27 25 20 20 17 14 13 15 20 10 10 8 4 1 6
47 44 42 39 38 36 34 34 34 34 34 33 32 31 29 29 28 28 27 27 27 27 25 21 18 15 18 16 14 14 8 9 10 8 6 4 7 8
48 46 40 38 34 34 34 34 34 34 33 33 32 31 29 27 26 26 26 24 26 22 18 15 12 11 12 12 14 17 12 10 8 6 3 3 1 8
49 46 41 36 32 30 30 31 33 33 33 31 30 30 27 25 23 23 23 23 22 15 10 8 7 7 7 11 13 15 9 3 3 0 2 2 7 9
46 43 39 34 31 32 35 36 34 33 31 31 30 28 26 23 22 21 21 22 15 7 6 4 5 5 9 13 11 7 5 5 2 2 6 7 8 10
44 41 35 33 30 35 39 40 39 34 32 30 29 27 23 21 20 19 20 15 7 5 4 5 6 7 9 12 11 10 11 6 4 1 6 9 6 9
41 37 34 32 31 36 41 41 38 34 29 27 26 23 21 19 17 16 15 9 3 3 3 4 4 3 2 2 10 16 13 7 7 6 8 12 14 14
41 36 33 33 32 36 40 38 35 31 28 25 21 19 18 16 14 13 8 3 2 1 1 2 2 2 1 4 5 5 8 8 8 9 12 12 11 12
40 36 33 33 31 35 37 34 35 30 25 22 19 16 14 12 10 6 2 4 3 2 3 2 1 3 1 5 4 5 7 10 13 15 14 11 9 8
40 35 33 32 30 34 35 32 34 28 24 21 16 13 11 8 5 4 4 5 5 4 4 4 3 2 4 6 5 7 12 16 18 16 14 13 10 7

GFSNE_700_spd_288.txt.gz
Wind_Speed
33 35 36 37 38 40 43 44 45 52 53 52 52 49 52 55 55 54 55 59 59 58 64 67 67 65 65 58 62 72 78 75 69 69 67 71 67 64
34 35 36 38 39 40 42 42 43 46 54 51 51 50 47 49 51 53 53 54 56 58 61 58 64 68 67 70 73 74 78 80 83 83 77 75 71 71
33 34 35 37 38 39 41 40 41 43 49 51 48 46 45 44 45 47 49 48 50 51 52 53 66 68 67 69 67 71 75 82 79 83 87 86 82 77
37 38 38 39 40 40 40 41 42 43 45 49 48 46 45 43 42 42 42 45 42 43 45 47 50 53 56 58 62 67 68 70 75 79 82 83 80 76
40 40 40 40 42 42 41 43 43 43 43 46 48 49 50 49 48 44 43 41 42 41 38 39 42 46 48 47 50 53 54 57 63 68 72 64 64 64
40 39 39 40 43 43 43 42 43 45 45 44 44 45 45 45 46 48 44 41 40 37 38 39 40 40 41 42 41 46 48 49 52 54 55 54 52 49
40 38 36 37 41 42 45 45 45 46 45 46 45 45 44 43 44 45 46 44 40 40 36 37 39 39 39 40 40 40 42 43 44 45 44 42 41 40
45 41 39 40 41 41 42 42 43 45 46 48 49 48 46 45 44 45 46 45 43 40 39 36 37 36 35 36 37 35 36 38 38 38 39 37 34 31
47 45 43 42 43 44 43 43 42 42 43 46 50 49 49 44 44 45 44 43 42 40 42 39 36 34 32 32 32 31 30 26 26 27 28 29 29 31
45 43 41 42 43 44 45 45 43 41 39 40 42 43 42 41 41 42 42 41 38 37 39 39 34 32 29 26 24 24 19 16 22 22 21 22 26 26
45 43 43 45 45 46 46 46 42 39 38 38 39 38 36 35 35 38 37 38 36 34 33 34 31 28 25 20 11 12 12 18 21 20 19 19 19 20
48 43 42 44 43 41 42 42 43 40 39 37 34 33 32 30 29 30 32 33 33 33 29 33 26 27 26 19 16 18 15 14 10 16 16 15 14 13
50 46 44 44 42 40 38 37 39 41 39 38 37 35 32 29 27 26 26 29 31 30 26 29 30 24 25 25 18 16 14 13 12 12 11 13 11 9
50 46 45 45 42 39 35 35 35 37 39 39 37 34 34 31 28 25 24 25 27 28 24 25 28 24 20 19 15 13 13 12 13 11 11 8 9 3
49 46 46 46 41 34 31 32 35 39 40 40 37 33 31 31 29 26 23 24 24 24 25 24 22 18 16 13 13 13 12 12 11 10 6 3 2 4
50 48 47 44 37 33 30 32 37 40 40 39 36 33 29 28 27 25 23 23 22 22 20 16 15 13 10 9 10 8 12 12 7 5 4 3 5 8
48 46 45 42 37 33 30 35 40 40 39 37 34 31 28 27 24 23 21 21 22 19 13 12 10 9 6 4 6 10 8 5 6 3 3 4 9 10
45 45 44 40 36 36 36 39 41 41 40 36 31 29 27 25 23 20 18 19 17 12 12 10 9 8 5 6 5 5 5 7 6 2 3 4 6 9
43 43 42 38 36 36 35 40 41 39 39 34 30 27 24 22 20 17 16 14 10 10 10 9 10 9 6 4 3 3 6 8 5 5 8 6 4 9
41 42 41 37 35 35 36 40 39 38 35 30 27 24 22 20 16 14 12 11 9 9 9 9 9 8 5 3 3 3 7 4 7 5 8 8 8 10
41 41 40 36 35 34 35 38 36 37 34 29 26 23 20 17 14 11 9 9 8 8 9 8 8 9 7 8 6 9 11 10 10 9 10 8 7 9
41 41 39 35 34 33 34 36 34 34 33 27 23 19 17 14 11 10 9 8 8 8 8 8 9 10 8 9 5 6 9 13 15 15 13 10 8 7
40 40 38 34 32 31 31 33 32 30 29 25 21 18 16 13 10 9 8 8 8 9 8 8 8 8 9 10 7 9 14 17 15 13 11 11 9 7

GFSNE_700_spd_291.txt.gz
Wind_Speed
30 31 33 34 36 37 38 41 46 52 50 51 52 49 50 49 48 50 51 49 48 51 53 57 58 59 62 66 65 68 72 67 66 68 69 71 74 80
32 33 35 36 37 38 39 40 41 46 52 50 51 49 47 47 45 44 44 45 44 41 44 48 50 55 56 60 60 70 68 67 73 73 75 76 73 71
34 36 38 40 41 42 43 43 44 45 49 49 46 45 44 44 43 43 44 45 43 41 40 38 41 45 49 51 54 56 60 66 74 73 79 78 79 84
37 39 42 44 45 45 45 45 45 44 46 49 48 46 45 43 42 42 42 41 42 40 37 36 37 39 41 43 45 47 48 50 53 57 67 70 74 78
39 42 44 46 48 48 47 47 46 45 45 48 50 47 45 44 43 42 41 41 40 39 37 36 36 38 40 41 42 42 42 43 46 47 50 52 56 60
38 41 45 47 50 50 50 49 48 47 47 48 48 49 47 45 45 46 45 43 41 38 36 37 37 38 40 41 42 43 41 42 44 45 45 46 45 44
40 43 45 48 49 49 49 48 46 46 46 46 47 47 45 43 44 45 45 45 42 39 37 35 35 36 37 38 38 39 40 39 39 41 41 42 43 40
43 46 48 48 48 47 45 45 44 45 44 43 43 43 44 44 44 44 42 42 42 33 36 29 32 33 34 34 34 34 34 35 33 31 30 31 32 33
45 48 50 50 50 49 46 45 43 39 38 39 40 39 42 41 43 42 39 38 37 35 34 31 28 29 30 30 29 29 27 28 26 20 25 27 26 25
44 48 51 50 47 47 46 44 42 37 35 35 36 37 38 39 40 42 40 39 35 30 30 32 26 27 26 25 25 22 18 16 19 21 24 23 23 22
45 47 50 50 48 47 45 42 38 34 33 33 35 36 36 36 36 39 37 37 35 29 27 33 28 28 25 21 25 17 16 17 16 21 18 22 22 20
46 48 49 47 44 44 43 40 37 36 37 38 38 35 33 32 30 31 33 35 35 32 26 31 27 29 30 20 19 20 20 22 20 21 22 18 17 15
48 50 49 45 44 44 39 37 36 37 40 45 45 42 39 33 29 28 28 29 30 30 26 29 29 28 28 28 19 14 17 17 17 15 15 17 14 10
48 49 49 44 45 42 37 35 34 37 42 44 44 41 37 34 29 26 26 26 25 27 23 24 28 26 24 22 17 11 10 9 12 13 16 13 10 6
47 49 48 45 43 39 36 35 34 38 43 42 44 39 33 30 27 26 24 24 22 21 23 22 21 21 19 16 13 10 4 7 12 13 13 9 7 5
49 51 48 44 43 38 35 33 34 39 39 41 40 35 31 29 27 26 24 21 20 18 16 16 17 17 15 12 11 4 5 9 8 7 7 8 8 9
50 49 46 42 41 36 35 33 38 41 40 41 36 33 30 27 24 23 21 19 20 16 15 15 14 15 12 9 7 8 7 6 3 4 8 8 9 12
48 48 44 41 40 37 35 35 39 40 40 38 33 31 29 27 23 20 18 18 15 14 14 13 13 12 9 7 7 7 3 6 6 9 10 7 10 13
46 45 41 40 39 35 34 35 38 39 39 36 31 28 26 24 21 19 16 14 13 13 12 13 12 12 9 7 8 10 13 9 9 12 11 8 10 14
45 44 40 39 38 34 33 34 36 37 36 33 29 26 24 23 19 16 14 14 12 12 12 13 13 13 12 10 8 9 14 12 14 12 10 9 9 13
45 42 38 38 37 32 31 30 33 33 32 31 28 26 23 21 17 15 15 14 13 12 13 13 12 12 14 14 8 8 13 16 15 12 11 8 9 11
44 41 37 37 35 32 30 27 28 29 28 28 26 24 22 19 17 16 15 14 13 13 12 11 12 12 12 13 9 8 11 14 13 11 10 10 10 9
43 40 36 36 34 31 28 25 26 24 24 24 24 22 20 17 16 15 14 13 13 13 12 11 10 11 12 12 11 13 15 15 13 10 8 9 9 8